GAP2165 RPVA-RPLL

Flight info

Callsign GAP2165
Flight time 0h 54m
Altitude 36000
Route MALAG5R MALAG W9 AKDAP AKDAP3R
Aircraft A321/M-SDE3FGHIRWY/LB1

Departure

Time 2026-04-23 14:50
Airport Daniel Z. Romualdez Airport (RPVA)

Arrival

Time 2026-04-23 15:44
Airport Ninoy Aquino International Airport (RPLL)
Time Latitude Longitude Altitude Speed Heading
2026-04-23 14:49 11.46628 124.90489 9348 ft 296 kts 315°
2026-04-23 14:50 11.48594 124.88550 10078 ft 300 kts 315°
2026-04-23 14:50 11.50119 124.87041 10519 ft 308 kts 315°
2026-04-23 14:50 11.51159 124.86014 10690 ft 318 kts 315°
2026-04-23 14:50 11.53352 124.83849 11032 ft 337 kts 315°
2026-04-23 14:51 11.54478 124.82739 11225 ft 345 kts 315°
2026-04-23 14:51 11.56229 124.81018 11718 ft 349 kts 316°
2026-04-23 14:51 11.58058 124.79388 12277 ft 351 kts 320°
2026-04-23 14:51 11.60024 124.77883 12828 ft 353 kts 325°
2026-04-23 14:52 11.62071 124.76488 13352 ft 355 kts 326°
2026-04-23 14:52 11.64139 124.75101 13835 ft 357 kts 326°
2026-04-23 14:52 11.66232 124.73700 14291 ft 360 kts 326°
2026-04-23 14:52 11.69055 124.71808 14906 ft 365 kts 326°
2026-04-23 14:53 11.70458 124.70867 15192 ft 367 kts 326°
2026-04-23 14:53 11.72595 124.69430 15586 ft 371 kts 326°
2026-04-23 14:53 11.75490 124.67481 16108 ft 376 kts 326°
2026-04-23 14:53 11.77706 124.65988 16525 ft 379 kts 326°
2026-04-23 14:54 11.79165 124.65004 16800 ft 380 kts 326°
2026-04-23 14:54 11.81384 124.63508 17207 ft 383 kts 326°
2026-04-23 14:54 11.83611 124.62006 17592 ft 386 kts 326°
2026-04-23 14:54 11.86618 124.59977 18120 ft 389 kts 327°
2026-04-23 14:55 11.88139 124.58950 18403 ft 390 kts 327°
2026-04-23 14:55 11.90380 124.57438 18797 ft 391 kts 327°
2026-04-23 14:55 11.92664 124.55897 19182 ft 393 kts 327°
2026-04-23 14:55 11.94977 124.54336 19559 ft 395 kts 327°
2026-04-23 14:56 11.98020 124.52280 20040 ft 397 kts 327°
2026-04-23 14:56 11.99562 124.51240 20274 ft 399 kts 327°
2026-04-23 14:56 12.01888 124.49670 20621 ft 400 kts 328°
2026-04-23 14:56 12.05015 124.47558 21066 ft 403 kts 328°
2026-04-23 14:57 12.06573 124.46505 21287 ft 404 kts 328°
2026-04-23 14:57 12.09691 124.44398 21719 ft 407 kts 328°
2026-04-23 14:57 12.11294 124.43316 21936 ft 408 kts 328°
2026-04-23 14:57 12.13648 124.41734 22245 ft 409 kts 328°
2026-04-23 14:58 12.16044 124.40122 22557 ft 411 kts 328°
2026-04-23 14:58 12.19257 124.37956 22957 ft 414 kts 327°
2026-04-23 14:58 12.20843 124.36884 23148 ft 415 kts 327°
2026-04-23 14:58 12.23275 124.35236 23443 ft 417 kts 327°
2026-04-23 14:59 12.25673 124.33604 23739 ft 419 kts 327°
2026-04-23 14:59 12.28110 124.31935 24035 ft 420 kts 327°
2026-04-23 14:59 12.31367 124.29713 24417 ft 422 kts 327°
2026-04-23 14:59 12.33813 124.28052 24702 ft 424 kts 327°
2026-04-23 15:00 12.36300 124.26361 24981 ft 426 kts 326°
2026-04-23 15:00 12.38702 124.24598 25252 ft 427 kts 323°
2026-04-23 15:00 12.40289 124.23376 25433 ft 428 kts 323°
2026-04-23 15:00 12.42681 124.21515 25712 ft 430 kts 322°
2026-04-23 15:01 12.45059 124.19659 25979 ft 431 kts 322°
2026-04-23 15:01 12.47470 124.17775 26235 ft 433 kts 322°
2026-04-23 15:01 12.50666 124.15276 26568 ft 435 kts 322°
2026-04-23 15:01 12.52265 124.14025 26732 ft 437 kts 322°
2026-04-23 15:02 12.54681 124.12135 26979 ft 438 kts 321°
2026-04-23 15:02 12.57142 124.10211 27226 ft 440 kts 321°
2026-04-23 15:02 12.59564 124.08318 27464 ft 442 kts 321°
2026-04-23 15:02 12.62871 124.05732 27796 ft 444 kts 321°
2026-04-23 15:03 12.64511 124.04449 27958 ft 445 kts 321°
2026-04-23 15:03 12.67788 124.01887 28279 ft 447 kts 321°
2026-04-23 15:03 12.69436 124.00597 28444 ft 447 kts 321°
2026-04-23 15:03 12.71898 123.98669 28681 ft 449 kts 321°
2026-04-23 15:04 12.74401 123.96709 28917 ft 450 kts 321°
2026-04-23 15:04 12.76876 123.94769 29150 ft 452 kts 321°
2026-04-23 15:04 12.80209 123.92157 29464 ft 453 kts 321°
2026-04-23 15:04 12.81883 123.90845 29615 ft 454 kts 321°
2026-04-23 15:05 12.84395 123.88876 29833 ft 456 kts 321°
2026-04-23 15:05 12.86942 123.86879 30065 ft 457 kts 321°
2026-04-23 15:05 12.89461 123.84904 30349 ft 456 kts 321°
2026-04-23 15:05 12.91983 123.82925 30682 ft 455 kts 321°
2026-04-23 15:06 12.94474 123.80970 31004 ft 454 kts 321°
2026-04-23 15:06 12.97801 123.78359 31417 ft 452 kts 321°
2026-04-23 15:06 13.00300 123.76395 31723 ft 451 kts 321°
2026-04-23 15:06 13.01972 123.75081 31922 ft 451 kts 321°
2026-04-23 15:07 13.05273 123.72483 32306 ft 450 kts 321°
2026-04-23 15:07 13.06930 123.71181 32498 ft 449 kts 321°
2026-04-23 15:07 13.09430 123.69215 32799 ft 448 kts 321°
2026-04-23 15:07 13.11864 123.67265 33154 ft 446 kts 319°
2026-04-23 15:08 13.14252 123.65235 33478 ft 445 kts 319°
2026-04-23 15:08 13.17423 123.62500 33904 ft 444 kts 319°
2026-04-23 15:08 13.18978 123.61153 34108 ft 443 kts 319°
2026-04-23 15:09 13.23698 123.57055 34599 ft 443 kts 319°
2026-04-23 15:09 13.26039 123.55022 34799 ft 444 kts 319°
2026-04-23 15:09 13.28407 123.52963 34997 ft 445 kts 319°
2026-04-23 15:09 13.31550 123.50231 35256 ft 446 kts 319°
2026-04-23 15:10 13.33148 123.48840 35379 ft 447 kts 319°
2026-04-23 15:10 13.35526 123.46772 35556 ft 447 kts 319°
2026-04-23 15:10 13.38683 123.44024 35783 ft 448 kts 319°
2026-04-23 15:10 13.40280 123.42632 35890 ft 449 kts 319°
2026-04-23 15:11 13.42661 123.40556 35906 ft 450 kts 319°
2026-04-23 15:11 13.47438 123.36389 35915 ft 449 kts 319°
2026-04-23 15:12 13.52162 123.32193 35912 ft 449 kts 316°
2026-04-23 15:12 13.56461 123.27533 35905 ft 449 kts 309°
2026-04-23 15:13 13.60127 123.22369 35899 ft 449 kts 302°
2026-04-23 15:13 13.63147 123.16743 35897 ft 449 kts 296°
2026-04-23 15:14 13.65881 123.10992 35897 ft 450 kts 296°
2026-04-23 15:14 13.68637 123.05184 35900 ft 450 kts 296°
2026-04-23 15:15 13.71837 122.98461 35905 ft 450 kts 296°
2026-04-23 15:15 13.74111 122.93684 35907 ft 449 kts 296°
2026-04-23 15:16 13.76868 122.87890 35907 ft 449 kts 296°
2026-04-23 15:16 13.79606 122.82132 35910 ft 450 kts 296°
2026-04-23 15:17 13.82362 122.76341 35916 ft 451 kts 296°
2026-04-23 15:17 13.85114 122.70561 35923 ft 451 kts 296°
2026-04-23 15:18 13.87859 122.64783 35926 ft 451 kts 296°
2026-04-23 15:18 13.90606 122.58993 35876 ft 451 kts 296°
2026-04-23 15:18 13.91994 122.56065 35400 ft 453 kts 296°
2026-04-23 15:19 13.93840 122.52173 34290 ft 457 kts 296°
2026-04-23 15:19 13.94769 122.50213 33618 ft 460 kts 296°
2026-04-23 15:19 13.96172 122.47253 32700 ft 462 kts 295°
2026-04-23 15:19 13.97578 122.44280 31956 ft 463 kts 295°
2026-04-23 15:20 13.98998 122.41276 31188 ft 464 kts 295°
2026-04-23 15:20 14.00403 122.38301 30419 ft 465 kts 295°
2026-04-23 15:20 14.01818 122.35307 29646 ft 466 kts 295°
2026-04-23 15:20 14.03233 122.32303 29104 ft 462 kts 295°
2026-04-23 15:21 14.05078 122.28376 28449 ft 454 kts 295°
2026-04-23 15:21 14.05993 122.26430 28124 ft 451 kts 295°
2026-04-23 15:21 14.07793 122.22607 27486 ft 444 kts 295°
2026-04-23 15:21 14.08684 122.20718 27167 ft 440 kts 295°
2026-04-23 15:22 14.10464 122.16944 26519 ft 434 kts 295°
2026-04-23 15:22 14.11342 122.15099 26202 ft 431 kts 295°
2026-04-23 15:22 14.12652 122.12350 25729 ft 426 kts 295°
2026-04-23 15:22 14.13932 122.09653 25267 ft 422 kts 295°
2026-04-23 15:23 14.15209 122.06951 24801 ft 417 kts 295°
2026-04-23 15:23 14.16483 122.04247 24334 ft 413 kts 295°
2026-04-23 15:23 14.17721 122.01614 23882 ft 409 kts 295°
2026-04-23 15:23 14.18948 121.99004 23436 ft 405 kts 295°
2026-04-23 15:24 14.20171 121.96400 22987 ft 401 kts 295°
2026-04-23 15:24 14.21379 121.93837 22552 ft 401 kts 295°
2026-04-23 15:24 14.23037 121.90389 21982 ft 399 kts 296°
2026-04-23 15:24 14.24288 121.87846 21566 ft 397 kts 296°
2026-04-23 15:25 14.25108 121.86184 21293 ft 395 kts 296°
2026-04-23 15:25 14.26770 121.82809 20729 ft 392 kts 296°
2026-04-23 15:25 14.27587 121.81149 20455 ft 390 kts 296°
2026-04-23 15:25 14.28807 121.78664 20039 ft 388 kts 296°
2026-04-23 15:26 14.30004 121.76156 19619 ft 387 kts 296°
2026-04-23 15:26 14.31166 121.73686 19204 ft 385 kts 296°
2026-04-23 15:26 14.32703 121.70397 18540 ft 385 kts 296°
2026-04-23 15:26 14.33478 121.68733 18166 ft 385 kts 296°
2026-04-23 15:27 14.35020 121.65408 17423 ft 385 kts 296°
2026-04-23 15:27 14.36171 121.62916 16878 ft 386 kts 296°
2026-04-23 15:27 14.37322 121.60420 16330 ft 386 kts 296°
2026-04-23 15:27 14.38473 121.57927 15785 ft 386 kts 296°
2026-04-23 15:28 14.39232 121.56284 15420 ft 385 kts 296°
2026-04-23 15:28 14.40766 121.52965 14681 ft 385 kts 296°
2026-04-23 15:28 14.41925 121.50458 14114 ft 385 kts 296°
2026-04-23 15:28 14.43065 121.47987 13565 ft 384 kts 296°
2026-04-23 15:29 14.43822 121.46343 13197 ft 384 kts 296°
2026-04-23 15:29 14.44963 121.43861 12731 ft 380 kts 296°
2026-04-23 15:29 14.46461 121.40595 12163 ft 375 kts 296°
2026-04-23 15:29 14.47195 121.38994 11925 ft 371 kts 296°
2026-04-23 15:30 14.48649 121.35829 11665 ft 356 kts 296°
2026-04-23 15:30 14.49677 121.33571 11476 ft 346 kts 293°
2026-04-23 15:30 14.50232 121.31190 11349 ft 333 kts 271°
2026-04-23 15:30 14.50087 121.29636 11309 ft 324 kts 256°
2026-04-23 15:31 14.49241 121.27561 11267 ft 310 kts 240°
2026-04-23 15:31 14.47797 121.25073 11201 ft 293 kts 238°
2026-04-23 15:31 14.46728 121.23305 10892 ft 291 kts 237°
2026-04-23 15:31 14.46016 121.22133 10644 ft 292 kts 237°
2026-04-23 15:32 14.44583 121.19768 10171 ft 291 kts 237°
2026-04-23 15:32 14.43873 121.18594 9966 ft 289 kts 237°
2026-04-23 15:32 14.42462 121.16256 9606 ft 285 kts 237°
2026-04-23 15:32 14.41419 121.14525 9314 ft 283 kts 237°
2026-04-23 15:33 14.40724 121.13374 9112 ft 281 kts 237°
2026-04-23 15:33 14.39696 121.11671 8823 ft 278 kts 237°
2026-04-23 15:33 14.38333 121.09419 8423 ft 275 kts 237°
2026-04-23 15:33 14.37327 121.07755 8144 ft 273 kts 237°
2026-04-23 15:34 14.36660 121.06651 7943 ft 271 kts 237°
2026-04-23 15:34 14.35330 121.04448 7571 ft 269 kts 237°
2026-04-23 15:34 14.34670 121.03352 7375 ft 267 kts 237°
2026-04-23 15:34 14.33364 121.01185 7012 ft 265 kts 237°
2026-04-23 15:35 14.32723 121.00123 6832 ft 264 kts 237°
2026-04-23 15:35 14.31751 120.98511 6541 ft 262 kts 237°
2026-04-23 15:35 14.30786 120.96914 6241 ft 261 kts 238°
2026-04-23 15:35 14.29511 120.94811 5873 ft 259 kts 237°
2026-04-23 15:36 14.28581 120.93227 5580 ft 258 kts 244°
2026-04-23 15:36 14.28208 120.92063 5381 ft 257 kts 259°
2026-04-23 15:36 14.28010 120.90242 5105 ft 256 kts 266°
2026-04-23 15:36 14.27917 120.88409 4826 ft 255 kts 267°
2026-04-23 15:37 14.27825 120.85992 4450 ft 254 kts 268°
2026-04-23 15:37 14.27798 120.84773 4244 ft 254 kts 272°
2026-04-23 15:37 14.28269 120.83059 4053 ft 246 kts 303°
2026-04-23 15:37 14.29439 120.81816 3962 ft 243 kts 323°
2026-04-23 15:38 14.30811 120.80808 3872 ft 243 kts 327°
2026-04-23 15:38 14.32226 120.79837 3825 ft 243 kts 327°
2026-04-23 15:38 14.33706 120.78968 3761 ft 242 kts 343°
2026-04-23 15:38 14.35901 120.78944 3693 ft 238 kts 13°
2026-04-23 15:39 14.36979 120.79210 3662 ft 236 kts 16°
2026-04-23 15:39 14.38415 120.79895 3556 ft 223 kts 44°
2026-04-23 15:39 14.39369 120.81120 3523 ft 218 kts 60°
2026-04-23 15:39 14.40343 120.82903 3596 ft 202 kts 63°
2026-04-23 15:40 14.40995 120.84146 3400 ft 196 kts 62°
2026-04-23 15:40 14.41656 120.85381 3168 ft 196 kts 61°
2026-04-23 15:40 14.42106 120.86204 2999 ft 196 kts 61°
2026-04-23 15:40 14.43010 120.87837 2660 ft 195 kts 60°
2026-04-23 15:41 14.43693 120.89063 2406 ft 193 kts 60°
2026-04-23 15:41 14.44134 120.89854 2279 ft 186 kts 60°
2026-04-23 15:41 14.44972 120.91361 1934 ft 172 kts 59°
2026-04-23 15:41 14.45548 120.92397 1690 ft 158 kts 58°
2026-04-23 15:42 14.45906 120.93040 1546 ft 151 kts 59°
2026-04-23 15:42 14.46598 120.94283 1288 ft 149 kts 59°
2026-04-23 15:42 14.46943 120.94903 1165 ft 149 kts 59°
2026-04-23 15:42 14.47463 120.95836 981 ft 149 kts 60°
2026-04-23 15:43 14.47978 120.96764 796 ft 148 kts 60°
2026-04-23 15:43 14.48662 120.97993 554 ft 148 kts 60°
2026-04-23 15:43 14.49173 120.98911 365 ft 147 kts 62°
2026-04-23 15:43 14.49509 120.99514 250 ft 147 kts 62°
2026-04-23 15:44 14.50183 121.00724 90 ft 137 kts 60°
2026-04-23 15:44 14.50577 121.01440 82 ft 76 kts 60°
2026-04-23 15:44 14.50690 121.01634 82 ft 23 kts 52°
2026-04-23 15:44 14.50769 121.01720 82 ft 9 kts 40°
2026-04-23 15:45 14.50827 121.01767 82 ft 5 kts 37°
2026-04-23 15:45 14.50847 121.01782 82 ft 5 kts 33°
2026-04-23 15:45 14.50888 121.01784 82 ft 6 kts 333°
2026-04-23 15:45 14.50895 121.01725 82 ft 8 kts 241°
2026-04-23 15:46 14.50884 121.01691 82 ft 7 kts 274°
2026-04-23 15:46 14.50916 121.01623 82 ft 8 kts 266°
2026-04-23 15:46 14.50889 121.01565 82 ft 9 kts 240°
2026-04-23 15:46 14.50866 121.01523 82 ft 10 kts 240°
2026-04-23 15:47 14.50842 121.01480 82 ft 2 kts 241°
2026-04-23 15:47 14.50835 121.01468 82 ft 3 kts 241°
2026-04-23 15:47 14.50816 121.01433 82 ft 4 kts 243°
2026-04-23 15:47 14.50829 121.01405 82 ft 5 kts 319°
2026-04-23 15:48 14.50851 121.01390 82 ft 6 kts 330°
2026-04-23 15:48 14.50884 121.01370 82 ft 4 kts 329°
2026-04-23 15:48 14.50892 121.01366 82 ft 0 kts 329°
2026-04-23 15:48 14.50896 121.01363 82 ft 0 kts 330°